Location: Newark
(51.3318°N, 0.0053°E)
Time: 06:42:42
(UTC+00:00)

CUBEBUG 2 - Pass Details

Date: 11 July 2022
Orbit: 584 x 692 km, 97.7° (Epoch: 12 August)

Event Time Altitude Azimuth Distance (km) Brightness Sun altitude
Rises 02:49:53 0° 17° (NNE) 2,870 ? -8.2°
Reaches altitude 10° 02:52:04 10° 21° (NNE) 1,975 ? -8.0°
Maximum altitude 02:56:18 57° 101° (E) 737 ? -7.6°
Drops below altitude 10° 03:00:39 10° 180° (S) 2,023 ? -7.1°
Enters shadow 03:02:17 - 184° (S) 2,688 ? -7.0°
